Météo par heure à Alhimovo

Ce jour, 13 Mai, Jeudi

Heure Température Précipitation Vent Pression Humidité
00:00 +8°C° 0 mm 5 m/s 739 mmHg 93%
01:00 +7°C° 0 mm 4 m/s 739 mmHg 95%
02:00 +5°C° 0 mm 3 m/s 739 mmHg 96%
03:00 +5°C° 0 mm 3 m/s 739 mmHg 96%
04:00 +5°C° 0 mm 3 m/s 739 mmHg 95%
05:00 +5°C° 0 mm 3 m/s 739 mmHg 94%
06:00 +6°C° 0 mm 4 m/s 739 mmHg 91%
07:00 +7°C° 0 mm 4 m/s 739 mmHg 88%
08:00 +9°C° 0 mm 5 m/s 739 mmHg 85%
09:00 +10°C° 0.2 mm 5 m/s 739 mmHg 81%
10:00 +11°C° 0.2 mm 6 m/s 738 mmHg 77%
11:00 +13°C° 0.2 mm 6 m/s 738 mmHg 72%
12:00 +13°C° 0.8 mm 6 m/s 738 mmHg 75%
13:00 +11°C° 0.8 mm 6 m/s 738 mmHg 78%
14:00 +12°C° 0.8 mm 5 m/s 737 mmHg 81%
15:00 +12°C° 0.1 mm 5 m/s 737 mmHg 79%
16:00 +12°C° 0.1 mm 5 m/s 737 mmHg 77%
17:00 +13°C° 0.1 mm 4 m/s 737 mmHg 74%
18:00 +11°C° 0.1 mm 4 m/s 737 mmHg 80%
19:00 +10°C° 0.1 mm 3 m/s 737 mmHg 86%
20:00 +8°C° 0.1 mm 3 m/s 737 mmHg 92%
21:00 +8°C° 0 mm 3 m/s 737 mmHg 92%
22:00 +8°C° 0 mm 3 m/s 737 mmHg 93%
23:00 +8°C° 0 mm 2 m/s 737 mmHg 93%

Demain, 14 Mai, Vendredi

Heure Température Précipitation Vent Pression Humidité
00:00 +7°C° 0 mm 3 m/s 737 mmHg 94%
01:00 +7°C° 0 mm 3 m/s 737 mmHg 94%
02:00 +5°C° 0 mm 3 m/s 738 mmHg 95%
03:00 +7°C° 0 mm 3 m/s 738 mmHg 94%
04:00 +7°C° 0 mm 3 m/s 738 mmHg 92%
05:00 +7°C° 0 mm 3 m/s 738 mmHg 91%
06:00 +8°C° 0 mm 4 m/s 738 mmHg 86%
07:00 +11°C° 0 mm 4 m/s 738 mmHg 82%
08:00 +12°C° 0 mm 4 m/s 738 mmHg 77%
09:00 +13°C° 0 mm 4 m/s 737 mmHg 73%
10:00 +15°C° 0 mm 4 m/s 737 mmHg 68%
11:00 +17°C° 0 mm 4 m/s 737 mmHg 64%
12:00 +17°C° 0.1 mm 5 m/s 737 mmHg 62%
13:00 +19°C° 0.1 mm 5 m/s 736 mmHg 60%
14:00 +20°C° 0.1 mm 5 m/s 736 mmHg 58%
15:00 +19°C° 0.5 mm 5 m/s 736 mmHg 66%
16:00 +17°C° 0.5 mm 5 m/s 735 mmHg 74%
17:00 +17°C° 0.5 mm 5 m/s 735 mmHg 82%
18:00 +17°C° 0.3 mm 4 m/s 734 mmHg 87%
19:00 +14°C° 0.3 mm 4 m/s 734 mmHg 92%
20:00 +13°C° 0.3 mm 3 m/s 733 mmHg 96%
21:00 +13°C° 0.6 mm 3 m/s 733 mmHg 96%
22:00 +13°C° 0.6 mm 3 m/s 733 mmHg 97%
23:00 +12°C° 0.6 mm 3 m/s 733 mmHg 97%

Après-demain, 15 Mai, Samedi

Heure Température Précipitation Vent Pression Humidité
00:00 +12°C° 0 mm 3 m/s 732 mmHg 97%
01:00 +12°C° 0 mm 3 m/s 732 mmHg 97%
02:00 +11°C° 0 mm 3 m/s 732 mmHg 97%
03:00 +12°C° 0 mm 3 m/s 732 mmHg 97%
04:00 +12°C° 0 mm 3 m/s 732 mmHg 97%
05:00 +12°C° 0 mm 3 m/s 732 mmHg 96%
06:00 +13°C° 0.1 mm 4 m/s 732 mmHg 91%
07:00 +15°C° 0.1 mm 4 m/s 732 mmHg 86%
08:00 +16°C° 0.1 mm 5 m/s 732 mmHg 81%
09:00 +17°C° 0.3 mm 5 m/s 732 mmHg 77%
10:00 +17°C° 0.3 mm 6 m/s 733 mmHg 72%
11:00 +18°C° 0.3 mm 7 m/s 733 mmHg 68%
12:00 +18°C° 0.3 mm 7 m/s 733 mmHg 68%
13:00 +18°C° 0.3 mm 7 m/s 733 mmHg 67%
14:00 +18°C° 0.3 mm 7 m/s 733 mmHg 67%
15:00 +17°C° 0.2 mm 6 m/s 733 mmHg 69%
16:00 +17°C° 0.2 mm 6 m/s 734 mmHg 72%
17:00 +16°C° 0.2 mm 5 m/s 734 mmHg 74%
18:00 +15°C° 0 mm 4 m/s 734 mmHg 80%
19:00 +14°C° 0 mm 3 m/s 734 mmHg 86%
20:00 +13°C° 0 mm 2 m/s 734 mmHg 91%
21:00 +13°C° 0 mm 2 m/s 734 mmHg 92%
22:00 +12°C° 0 mm 2 m/s 735 mmHg 93%
23:00 +12°C° 0 mm 2 m/s 735 mmHg 94%

16 Mai, Dimanche

Heure Température Précipitation Vent Pression Humidité
00:00 +12°C° 0 mm 2 m/s 735 mmHg 94%
01:00 +10°C° 0 mm 2 m/s 735 mmHg 94%
02:00 +10°C° 0 mm 2 m/s 735 mmHg 94%
03:00 +11°C° 0.3 mm 1 m/s 735 mmHg 94%
04:00 +11°C° 0.3 mm 1 m/s 735 mmHg 95%
05:00 +11°C° 0.3 mm 1 m/s 736 mmHg 95%
06:00 +13°C° 0.1 mm 1 m/s 736 mmHg 90%
07:00 +14°C° 0.1 mm 2 m/s 736 mmHg 84%
08:00 +16°C° 0.1 mm 2 m/s 737 mmHg 79%
09:00 +17°C° 0.1 mm 2 m/s 737 mmHg 74%
10:00 +18°C° 0.1 mm 2 m/s 737 mmHg 68%
11:00 +19°C° 0.1 mm 3 m/s 737 mmHg 63%
12:00 +19°C° 0 mm 3 m/s 737 mmHg 63%
13:00 +19°C° 0 mm 3 m/s 737 mmHg 63%
14:00 +20°C° 0 mm 3 m/s 737 mmHg 63%
15:00 +19°C° 0 mm 2 m/s 737 mmHg 65%
16:00 +19°C° 0 mm 2 m/s 737 mmHg 67%
17:00 +19°C° 0 mm 2 m/s 737 mmHg 69%
18:00 +19°C° 0 mm 1 m/s 738 mmHg 72%
19:00 +18°C° 0 mm 1 m/s 738 mmHg 76%
20:00 +15°C° 0 mm 1 m/s 738 mmHg 79%
21:00 +15°C° 0 mm 1 m/s 738 mmHg 80%
22:00 +14°C° 0 mm 2 m/s 738 mmHg 81%
23:00 +14°C° 0 mm 2 m/s 738 mmHg 82%

17 Mai, Lundi

Heure Température Précipitation Vent Pression Humidité
00:00 +13°C° 0 mm 2 m/s 738 mmHg 85%
01:00 +13°C° 0 mm 2 m/s 738 mmHg 88%
02:00 +12°C° 0 mm 2 m/s 738 mmHg 91%
03:00 +13°C° 0 mm 2 m/s 738 mmHg 91%
04:00 +12°C° 0 mm 3 m/s 738 mmHg 90%
05:00 +12°C° 0 mm 3 m/s 738 mmHg 89%
06:00 +14°C° 0 mm 3 m/s 738 mmHg 84%
07:00 +17°C° 0 mm 4 m/s 738 mmHg 78%
08:00 +18°C° 0 mm 4 m/s 738 mmHg 72%
09:00 +20°C° 0 mm 5 m/s 737 mmHg 68%
10:00 +21°C° 0 mm 5 m/s 737 mmHg 65%
11:00 +23°C° 0 mm 6 m/s 737 mmHg 61%
12:00 +24°C° 0 mm 6 m/s 736 mmHg 60%
13:00 +24°C° 0 mm 6 m/s 736 mmHg 60%
14:00 +26°C° 0 mm 6 m/s 735 mmHg 59%
15:00 +26°C° 0 mm 6 m/s 735 mmHg 62%
16:00 +24°C° 0 mm 6 m/s 735 mmHg 65%
17:00 +24°C° 0 mm 6 m/s 734 mmHg 69%
18:00 +23°C° 0 mm 6 m/s 734 mmHg 70%
19:00 +21°C° 0 mm 6 m/s 734 mmHg 72%
20:00 +20°C° 0 mm 6 m/s 734 mmHg 74%
21:00 +19°C° 0 mm 5 m/s 734 mmHg 76%
22:00 +17°C° 0 mm 5 m/s 734 mmHg 79%
23:00 +16°C° 0 mm 5 m/s 733 mmHg 82%

18 Mai, Mardi

Heure Température Précipitation Vent Pression Humidité
00:00 +16°C° 0 mm 5 m/s 733 mmHg 83%
01:00 +15°C° 0 mm 5 m/s 733 mmHg 83%
02:00 +15°C° 0 mm 5 m/s 732 mmHg 84%
03:00 +15°C° 0 mm 5 m/s 732 mmHg 85%
04:00 +15°C° 0 mm 5 m/s 732 mmHg 86%
05:00 +16°C° 0 mm 6 m/s 732 mmHg 86%
06:00 +17°C° 0.2 mm 6 m/s 732 mmHg 85%
07:00 +17°C° 0.2 mm 6 m/s 732 mmHg 84%
08:00 +19°C° 0.2 mm 6 m/s 733 mmHg 82%
09:00 +20°C° 0.2 mm 6 m/s 733 mmHg 83%
10:00 +20°C° 0.2 mm 5 m/s 733 mmHg 83%
11:00 +20°C° 0.2 mm 5 m/s 734 mmHg 84%
12:00 +20°C° 0.2 mm 5 m/s 734 mmHg 82%
13:00 +20°C° 0.2 mm 5 m/s 734 mmHg 79%
14:00 +20°C° 0.2 mm 5 m/s 734 mmHg 77%
15:00 +20°C° 0.2 mm 4 m/s 735 mmHg 78%
16:00 +20°C° 0.2 mm 4 m/s 735 mmHg 80%
17:00 +19°C° 0.2 mm 4 m/s 735 mmHg 81%
18:00 +18°C° 0.3 mm 3 m/s 735 mmHg 85%
19:00 +17°C° 0.3 mm 3 m/s 735 mmHg 90%
20:00 +16°C° 0.3 mm 2 m/s 736 mmHg 94%
21:00 +15°C° 0 mm 2 m/s 736 mmHg 94%
22:00 +15°C° 0 mm 2 m/s 736 mmHg 95%
23:00 +14°C° 0 mm 2 m/s 736 mmHg 95%
Voir plus

Nous avons besoin de votre consentement

Meteoprog et ses fournisseurs de services peuvent stocker et accéder à des données personnelles telles que des cookies, des identifiants d'appareils ou d'autres technologies similaires sur votre appareil et traiter ces données pour personnaliser le contenu et les publicités, ainsi que pour fournir des fonctionnalités de médias sociaux et analyser le trafic.

  • Stocker et/ou accéder à des informations sur votre appareil

    Des cookies, des identifiants d'appareils ou d'autres informations peuvent être stockés ou accessibles sur votre appareil aux fins indiquées ci-dessus.

  • Annonces et contenus personnalisés, mesure des annonces et des contenus, connaissance de l'audience et développement de produits

    Les annonces et le contenu peuvent être personnalisés en fonction d'un profil. D'autres données peuvent être ajoutées pour mieux personnaliser les annonces et le contenu. Les performances des publicités et du contenu peuvent être mesurées. Il est possible d'obtenir des informations sur le public qui a vu les publicités et le contenu. Ces données peuvent être utilisées pour développer ou améliorer l'expérience de l'utilisateur, les systèmes et les logiciels.

En cliquant sur "J'accepte", vous autorisez l'utilisation de cookies, des identifiants d'appareils, des balises web ou d'autres technologies similaires. Vos paramètres peuvent être modifiés dans le navigateur de votre appareil.

Dans certains cas, des intérêts légitimes peuvent être invoqués plutôt qu'un consentement. Vous pouvez en savoir plus à ce sujet dans notre Politique de confidentialité et de cookies.